Weather in Atmis

Russia / Penza Oblast     53°28′41″N   43°55′10″E
temp.,
°C
wind,
m/s
gust,
m/s
humid.,
%
clouds,
%
prec.,
mm/h
press.,
hPa
HPBL,
m
9 december, thu
thu900:00+1se61492100 0.0 1019407
03:00+1sse61089100 0.0 1019458
06:00+1sse599088 0.0 1019416
09:00−1se489384 0.0 1020316
12:00+1sse4586100 0.0 1020375
15:000ese1188100 0.0 102039
18:000ese1189100 0.0 102233
21:000ne2395100 0.1 1023136
10 december, fri
fri1000:00−1nne3697100 0.0 1024251
03:00−2nne5789100 0.0 1025375
06:00−3nne5886100 0.0 1027425
09:00−2ne5781100 0.1 1028374
12:00−2nne577665 0.0 1029449
15:00−3ne57685 0.0 1030463
18:00−5ne58663 0.0 1032399
21:00−5ne58661 0.0 1032378
11 december, sat
sat1100:00−6ne49650 0.0 1033347
03:00−7ne510650 0.0 1034326
06:00−7ene410640 0.0 1034316
09:00−7ene512610 0.0 1035345
12:00−5e610470 0.0 1035375
15:00−4ene410470 0.0 1036381
18:00−5ene512500 0.0 1037338
21:00−6e512520 0.0 1037346
12 december, sun
sun1200:00−6e411563 0.0 1038309
03:00−6e411575 0.0 1039313
06:00−7ese38620 0.0 1040238
09:00−6ese49625 0.0 1040246
12:00−4se48470 0.0 1040314
15:00−4se48460 0.0 1040291
18:00−5se410500 0.0 1041270
21:00−5se411520 0.0 1041273
13 december, mon
mon1300:00−6se411554 0.0 1041275
03:00−6se411560 0.0 1041269
06:00−6se411575 0.0 1040259
09:00−6se4125471 0.0 1040297
12:00−3se5124399 0.0 1039394
15:00−3se5124468 0.0 1038401
18:00−4se61446100 0.0 1037381
21:00−4sse61447100 0.0 1037412